Location: Copper Breaks State Park
(34.1132°N, 99.7492°W)
Time: 11:11:51
(UTC-05:00)

Amateur Radio Satellites - All Passes

Search period start: 30 August 2014 10:41
Search period end: 31 August 2014 10:41
Location: Copper Breaks State Park, 34.1132°N, 99.7492°W

Satellite Date Start Highest point End Downlink Frequencies (MHz)
Time Altitude Azimuth
ISS 30 Aug 11:08:15 11:11:34 84° 135° (SE) 11:14:53 145.800 FM
UKube-1 30 Aug 11:13:19 11:17:40 81° 284° (WNW) 11:22:00 145.840 MHz, 145.915 MHz
KITSAT 1 30 Aug 11:17:19 11:24:23 35° 253° (WSW) 11:31:26 435.175 FM
Oscar 11 30 Aug 11:19:57 11:24:20 76° 102° (ESE) 11:28:40 145.825 FM, Beacon 2401.500 USB
PANSAT 30 Aug 11:41:50 11:43:35 13° 158° (SSE) 11:45:20 not established
FUNcube-1 30 Aug 11:44:11 11:48:38 53° 100° (E) 11:53:08 145.950 - 145.970 MHz USB
HO-68 30 Aug 11:44:40 11:51:11 39° 293° (WNW) 11:57:41 435.675 MHz FM
RS-15 30 Aug 12:43:20 12:47:13 12° 343° (NNW) 12:51:07 29.354 - 29.394 USB, Beacon 29.352 USB
ISS 30 Aug 12:47:12 12:48:41 12° 332° (NNW) 12:50:10 145.800 FM
MaSat-1 30 Aug 12:50:17 12:52:21 13° 99° (E) 12:54:29 437.345 MHz
SO-50 30 Aug 12:55:26 12:59:02 21° 51° (NE) 13:02:39 436.795 FM
PANSAT 30 Aug 13:19:53 13:23:15 28° 170° (S) 13:26:36 not established
FUNcube-1 30 Aug 13:22:34 13:24:33 13° 293° (WNW) 13:26:32 145.950 - 145.970 MHz USB
Oscar 16 30 Aug 13:26:46 13:30:30 21° 67° (ENE) 13:34:15 437.025 USB, Beacon 2401.1428
Uribyol 2 30 Aug 13:36:55 13:37:33 10° 62° (ENE) 13:38:10 436.500 FM
AO-27 30 Aug 13:53:14 13:56:12 16° 65° (ENE) 13:59:10 436.795 MHz FM
JAS-1B 30 Aug 14:06:26 14:14:57 36° 66° (ENE) 14:22:48 435.800 - 435.900 CW/SSB
Gurwin Techsat 1B 30 Aug 14:20:19 14:22:15 12° 63° (ENE) 14:24:11 435.225 FM
MaSat-1 30 Aug 14:23:57 14:28:41 61° 295° (WNW) 14:33:47 437.345 MHz
Oscar 19 30 Aug 14:29:27 14:34:36 86° 77° (ENE) 14:39:48 437.125 CW, 437.150 USB
SO-50 30 Aug 14:35:12 14:39:45 42° 246° (WSW) 14:44:19 436.795 FM
Oscar 10/S400 30 Aug 14:54:06 15:11:50 17° 155° (SSE) 15:23:28 145.825 - 145.975 CW/USB, Beacon 145.810 USB
UOSAT-12 30 Aug 14:57:03 15:00:59 25° 52° (NE) 15:04:51 437.025 FM, 437.400 FM
PANSAT 30 Aug 14:59:32 15:03:05 35° 183° (S) 15:06:37 not established
AO-Echo 30 Aug 14:59:41 15:04:46 81° 76° (ENE) 15:09:43 ?
ITAMSAT 1 30 Aug 15:01:04 15:06:13 75° 75° (ENE) 15:11:23 435.822 SSB
RS-15 30 Aug 15:01:43 15:06:57 14° 23° (NNE) 15:12:15 29.354 - 29.394 USB, Beacon 29.352 USB
Oscar 16 30 Aug 15:04:43 15:09:31 40° 261° (W) 15:14:23 437.025 USB, Beacon 2401.1428
TMSAT-1 30 Aug 15:09:17 15:13:39 27° 69° (ENE) 15:18:02 436.925 FM
Uribyol 2 30 Aug 15:11:07 15:16:16 82° 257° (WSW) 15:21:27 436.500 FM
AO-27 30 Aug 15:30:09 15:35:13 55° 259° (W) 15:40:17 436.795 MHz FM
Uosat F 30 Aug 15:53:22 15:55:17 12° 63° (ENE) 15:57:12 435.120 FM
JAS-1B 30 Aug 15:55:22 16:04:59 55° 260° (W) 16:13:55 435.800 - 435.900 CW/SSB
Gurwin Techsat 1B 30 Aug 15:56:14 16:01:31 74° 258° (WSW) 16:06:50 435.225 FM
UOSAT-12 30 Aug 16:36:59 16:41:06 31° 248° (WSW) 16:45:09 437.025 FM, 437.400 FM
AO-7 30 Aug 16:37:49 16:45:52 56° 68° (ENE) 16:53:55 29.400 - 29.500 MHz
PANSAT 30 Aug 16:39:51 16:42:51 22° 195° (SSW) 16:45:51 not established
TMSAT-1 30 Aug 16:48:46 16:53:24 31° 263° (W) 16:58:04 436.925 FM
RS-15 30 Aug 17:12:33 17:23:09 47° 52° (NE) 17:34:05 29.354 - 29.394 USB, Beacon 29.352 USB
OPAL 30 Aug 17:15:31 17:19:26 21° 97° (E) 17:23:19 ?
Sapphire 30 Aug 17:16:30 17:21:34 43° 110° (ESE) 17:26:39 437.095 MHz 1200 baud AX-25 AFSK
Uosat F 30 Aug 17:28:29 17:33:27 67° 258° (WSW) 17:38:27 435.120 FM
ISS 30 Aug 17:40:37 17:43:08 20° 33° (NNE) 17:45:39 145.800 FM
PCSat 30 Aug 17:45:35 17:50:59 89° 115° (ESE) 17:56:26 145.825 MHz
JAS-2 30 Aug 18:24:23 18:30:21 45° 73° (ENE) 18:35:41 435.800 - 435.900 CW/SSB, 435.910 FM
AO-7 30 Aug 18:32:03 18:38:53 28° 263° (W) 18:45:46 29.400 - 29.500 MHz
Hamsat 30 Aug 18:42:48 18:47:03 64° 76° (ENE) 18:51:22 145.90 MHz
OPAL 30 Aug 18:53:33 18:58:22 39° 291° (WNW) 19:03:10 ?
Sapphire 30 Aug 19:00:55 19:05:08 23° 306° (NW) 19:09:23 437.095 MHz 1200 baud AX-25 AFSK
ISS 30 Aug 19:16:51 19:19:57 37° 228° (SW) 19:23:02 145.800 FM
RS-15 30 Aug 19:25:01 19:35:25 47° 251° (WSW) 19:46:15 29.354 - 29.394 USB, Beacon 29.352 USB
PCSat 30 Aug 19:32:57 19:35:07 12° 312° (NW) 19:37:18 145.825 MHz
SO-67 30 Aug 19:41:48 19:44:59 35° 75° (ENE) 19:48:10 435.3500 MHz FM
JAS-2 30 Aug 20:10:43 20:15:28 22° 263° (W) 20:19:51 435.800 - 435.900 CW/SSB, 435.910 FM
HO-68 30 Aug 20:23:50 20:28:17 18° 59° (ENE) 20:32:43 435.675 MHz FM
STRAND 1 30 Aug 20:36:51 20:41:58 80° 284° (WNW) 20:47:04 ?
AO-40 30 Aug 21:12:21 02:13:25 45° 185° (S) 07:57:58 Beacon 2401.320
UKube-1 30 Aug 22:05:03 22:09:16 53° 74° (ENE) 22:13:30 145.840 MHz, 145.915 MHz
HO-68 30 Aug 22:08:02 22:15:10 77° 256° (WSW) 22:22:20 435.675 MHz FM
Oscar 11 30 Aug 22:11:25 22:15:23 36° 73° (ENE) 22:19:22 145.825 FM, Beacon 2401.500 USB
FUNcube-1 30 Aug 22:37:46 22:41:12 25° 71° (ENE) 22:44:40 145.950 - 145.970 MHz USB
MaSat-1 30 Aug 22:47:31 22:49:21 12° 51° (NE) 22:51:06 437.345 MHz
Saudisat 1A 30 Aug 22:55:05 22:59:16 45° 115° (ESE) 23:03:28 436.775 MHz
UKube-1 30 Aug 23:44:54 23:45:44 11° 267° (W) 23:46:34 145.840 MHz, 145.915 MHz
KITSAT 1 30 Aug 23:45:13 23:52:58 52° 110° (ESE) 00:00:44 435.175 FM
Oscar 11 30 Aug 23:49:03 23:51:39 16° 266° (W) 23:54:15 145.825 FM, Beacon 2401.500 USB
FUNcube-1 31 Aug 00:14:25 00:17:32 20° 265° (W) 00:20:42 145.950 - 145.970 MHz USB
MaSat-1 31 Aug 00:22:37 00:26:52 52° 252° (WSW) 00:30:30 437.345 MHz
Saudisat 1A 31 Aug 00:36:10 00:39:03 17° 310° (NW) 00:41:57 436.775 MHz
KITSAT 1 31 Aug 01:41:31 01:48:35 33° 308° (NW) 01:55:42 435.175 FM
Sapphire 31 Aug 02:09:08 02:12:41 17° 51° (NE) 02:16:14 437.095 MHz 1200 baud AX-25 AFSK
PCSat 31 Aug 02:37:40 02:42:31 32° 57° (ENE) 02:47:20 145.825 MHz
Oscar 19 31 Aug 02:45:08 02:50:03 41° 99° (E) 02:54:54 437.125 CW, 437.150 USB
SO-50 31 Aug 03:08:53 03:10:49 13° 107° (ESE) 03:12:46 436.795 FM
AO-Echo 31 Aug 03:11:06 03:15:19 32° 98° (E) 03:19:33 ?
ITAMSAT 1 31 Aug 03:18:04 03:22:49 36° 98° (E) 03:27:33 435.822 SSB
Oscar 16 31 Aug 03:19:50 03:25:03 83° 284° (WNW) 03:30:14 437.025 USB, Beacon 2401.1428
Uribyol 2 31 Aug 03:27:46 03:32:48 49° 100° (E) 03:37:49 436.500 FM
TMSAT-1 31 Aug 03:30:01 03:32:44 14° 92° (E) 03:35:26 436.925 FM
Oscar 10/S400 31 Aug 03:42:10 05:00:38 45° 234° (SW) 10:33:27 145.825 - 145.975 CW/USB, Beacon 145.810 USB
AO-27 31 Aug 03:46:51 03:52:02 74° 102° (ESE) 03:57:13 436.795 MHz FM
JAS-1B 31 Aug 03:47:42 03:54:09 60° 100° (E) 03:59:49 435.800 - 435.900 CW/SSB
Sapphire 31 Aug 03:51:10 03:56:30 60° 248° (WSW) 04:01:49 437.095 MHz 1200 baud AX-25 AFSK
Gurwin Techsat 1B 31 Aug 04:16:20 04:21:36 62° 101° (E) 04:26:50 435.225 FM
PCSat 31 Aug 04:21:11 04:25:48 29° 252° (WSW) 04:30:23 145.825 MHz
Oscar 19 31 Aug 04:25:19 04:29:02 20° 293° (WNW) 04:32:45 437.125 CW, 437.150 USB
OPAL 31 Aug 04:26:54 04:30:59 25° 66° (ENE) 04:35:06 ?
AO-7 31 Aug 04:44:58 04:50:59 22° 95° (E) 04:56:56 29.400 - 29.500 MHz
SO-50 31 Aug 04:46:31 04:50:51 51° 302° (WNW) 04:55:17 436.795 FM
AO-Echo 31 Aug 04:50:26 04:53:52 21° 292° (WNW) 04:57:19 ?
ITAMSAT 1 31 Aug 04:58:04 05:02:03 23° 292° (WNW) 05:06:03 435.822 SSB
UOSAT-12 31 Aug 05:05:52 05:08:45 17° 108° (ESE) 05:11:40 437.025 FM, 437.400 FM
TMSAT-1 31 Aug 05:07:46 05:12:57 58° 286° (WNW) 05:18:07 436.925 FM
Uribyol 2 31 Aug 05:08:31 05:11:50 17° 294° (WNW) 05:15:10 436.500 FM
AO-27 31 Aug 05:29:09 05:30:52 12° 297° (WNW) 05:32:36 436.795 MHz FM
Uosat F 31 Aug 05:40:02 05:44:54 51° 100° (E) 05:49:45 435.120 FM
JAS-1B 31 Aug 05:40:02 05:43:59 17° 301° (WNW) 05:47:39 435.800 - 435.900 CW/SSB
Gurwin Techsat 1B 31 Aug 05:58:13 06:00:59 15° 296° (WNW) 06:03:45 435.225 FM
OPAL 31 Aug 06:05:12 06:09:40 32° 261° (W) 06:14:13 ?
Hamsat 31 Aug 06:33:46 06:36:20 15° 93° (E) 06:38:54 145.90 MHz
AO-7 31 Aug 06:36:02 06:44:14 68° 290° (WNW) 06:52:25 29.400 - 29.500 MHz
UOSAT-12 31 Aug 06:44:07 06:48:30 43° 303° (WNW) 06:52:58 437.025 FM, 437.400 FM
Uosat F 31 Aug 07:20:19 07:23:13 16° 295° (WNW) 07:26:07 435.120 FM
JAS-2 31 Aug 07:21:16 07:26:28 52° 101° (E) 07:32:07 435.800 - 435.900 CW/SSB, 435.910 FM
Saudisat 1A 31 Aug 07:26:32 07:28:58 14° 48° (NE) 07:31:23 436.775 MHz
RS-15 31 Aug 07:31:53 07:41:59 41° 108° (ESE) 07:51:51 29.354 - 29.394 USB, Beacon 29.352 USB
KITSAT 1 31 Aug 07:44:17 07:48:31 15° 39° (NE) 07:52:44 435.175 FM
STRAND 1 31 Aug 07:49:01 07:54:07 82° 257° (WSW) 07:59:14 ?
Hamsat 31 Aug 08:08:25 08:12:23 36° 287° (WNW) 08:16:19 145.90 MHz
AO-7 31 Aug 08:32:32 08:35:29 12° 309° (NW) 08:38:27 29.400 - 29.500 MHz
SO-67 31 Aug 08:41:45 08:45:13 77° 101° (E) 08:48:39 435.3500 MHz FM
Saudisat 1A 31 Aug 09:04:33 09:08:52 55° 244° (WSW) 09:13:09 436.775 MHz
JAS-2 31 Aug 09:08:00 09:11:14 16° 293° (WNW) 09:14:35 435.800 - 435.900 CW/SSB, 435.910 FM
KITSAT 1 31 Aug 09:37:27 09:45:30 68° 61° (ENE) 09:53:30 435.175 FM
HO-68 31 Aug 09:40:50 09:46:31 25° 96° (E) 09:52:10 435.675 MHz FM
RS-15 31 Aug 09:43:22 09:54:00 50° 307° (NW) 10:04:33 29.354 - 29.394 USB, Beacon 29.352 USB
UKube-1 31 Aug 09:59:11 10:00:52 12° 93° (E) 10:02:32 145.840 MHz, 145.915 MHz
ISS 31 Aug 10:20:00 10:23:07 40° 132° (SE) 10:26:16 145.800 FM
